This is the latest recevied weather packets stored in our database for station/object K1BES. If no packets are shown the sender has not sent any weather packets the latest 1 day(s).
| Time | Temp. | Humidity | Pressure | Rain* | Wind** | Luminosity | Snow |
|---|---|---|---|---|---|---|---|
| 1778099144 | 28.33° C | 75% | 1017.4 hPa | 0 mm | - | 118 W/m² | - |
| 1778097324 | 28.89° C | 76% | 1017.7 hPa | 0 mm | - | 795 W/m² | - |
| 1778096112 | 28.89° C | 77% | 1018 hPa | 0 mm | - | 853 W/m² | - |
| 1778095809 | 29.44° C | 76% | 1018 hPa | 0 mm | - | 857 W/m² | - |
| 1778094292 | 28.89° C | 75% | 1018.3 hPa | 0 mm | - | 952 W/m² | - |
| 1778093686 | 30° C | 74% | 1018.5 hPa | 0 mm | - | 965 W/m² | - |
| 1778092472 | 30° C | 72% | 1018.5 hPa | 0 mm | - | 1004 W/m² | - |
| 1778091564 | 29.44° C | 74% | 1018.8 hPa | 0 mm | - | 938 W/m² | - |
| 1778091262 | 28.89° C | 74% | 1018.7 hPa | 0 mm | - | 1007 W/m² | - |
| 1778089140 | 30° C | 74% | 1018.9 hPa | 0 mm | - | 1060 W/m² | - |
| 1778088230 | 30° C | 72% | 1018.9 hPa | 0 mm | - | 1051 W/m² | - |
| 1778085808 | 30° C | 71% | 1019.3 hPa | 0 mm | - | 932 W/m² | - |
| 1778085200 | 29.44° C | 74% | 1019.2 hPa | 0 mm | - | 1017 W/m² | - |
| 1778084594 | 30° C | 71% | 1019.2 hPa | 0 mm | - | 878 W/m² | - |
| 1778084291 | 30° C | 70% | 1019.4 hPa | 0 mm | - | 926 W/m² | - |
| 1778081044 | 30° C | 69% | 1019.2 hPa | 0 mm | - | 870 W/m² | - |
| 1778080743 | 30° C | 69% | 1019.1 hPa | 0 mm | - | 326 W/m² | - |
| 1778080439 | 30° C | 69% | 1019.2 hPa | 0 mm | - | 881 W/m² | - |
| 1778080137 | 30° C | 70% | 1019 hPa | 0 mm | - | 822 W/m² | - |
| 1778078620 | 28.89° C | 71% | 1019.2 hPa | 0 mm | - | 736 W/m² | - |
| 1778077411 | 29.44° C | 69% | 1018.7 hPa | 0 mm | - | 666 W/m² | - |
| 1778076505 | 29.44° C | 68% | 1018.8 hPa | 0 mm | - | 619 W/m² | - |
| 1778074988 | 28.89° C | 70% | 1018.6 hPa | 0 mm | - | 445 W/m² | - |
| 1778074685 | 28.89° C | 70% | 1018.6 hPa | 0 mm | - | 435 W/m² | - |
| 1778073474 | 27.78° C | 74% | 1018.7 hPa | 0 mm | - | 382 W/m² | - |
* Rain latest hour (hover to see other rain measurements)
** Current wind speed in m/s (hover to see current wind gust speed)